星链-1683 (STARLINK-1683 )

导读

STARLINK-1683是美国太空探索技术公司Starlink“星链”卫星项目的一颗卫星,于2020年10月6日08:00发射升空。它属于星链低轨互联网星座的组成部分,主要为全球范围提供高速互联网接入服务,星链项目在通信服务部署的同时,也引发了天文观测等领域的相关讨论。

Basic Information
目录编号:
46578
目录名称:
STARLINK-1683
国际标识:
2020-070AY
轨道中心:
EARTH
卫星名称:
星链-1683
卫星全名:
星链-1683 (STARLINK-1683 )
卫星状态:
已陨落 最后检测时间 2026-04-21
发射日期:
2020-10-06 UTC
国别 :
美国 (US)
星等 :
--
Orbit Information
数据来源 国际轨道数据
星历时间: 2026-04-21T21:06:20+0800
轨道信息已过期58天
半长轴: 6542.576km
偏心率: 0.0008307
轨道倾角: 52.993°
近地点辐角 277.744°
升交点赤经 211.016°
平近点角 82.266°
近地点: 159.004km
远地点: 169.874km
周期: 87.777分钟
每日圈数: 16.405129
Detailed Information
固有亮度:
5
最大亮度:
2.5
卫星平台:
Starlink V1.0
覆盖范围:
全球
运营商:
太空探索技术公司
运营商所在国:
美国
制造商(研发单位):
太空探索技术公司
制造商所在国:
美国
使用方式:
暂无
Satellite Introduction
星链(Starlink)计划是由太空探索技术公司(SpaceX)提出的一个巨型低轨卫星互联网星座项目,计划在2019年至2024年间在太空搭建由约1.2万颗卫星组成的“星链”网络,其中1584颗将部署在地球上空550千米处的近地轨道,并从2020年开始工作。该卫星仍在工作。